Location: Sungai Igah
(2.7333°N, 114.2500°E)
Time: 17:59:13
(UTC+00:00)

CZ-2C R/B - Pass Details

Date: 14 June 2021
Orbit: 667 x 785 km, 98.2° (Epoch: 25 July)

Event Time Altitude Azimuth Distance (km) Brightness Sun altitude
Rises 20:26:46 0° 350° (N) 3,123 5.9 -25.4°
Reaches altitude 10° 20:29:25 10° 337° (NNW) 2,184 4.9 -24.8°
Enters shadow 20:30:48 16° 324° (NW) 1,775 4.3 -24.5°
